Jefferson, NC

1:11 AM EDT on May 24, 2017 (GMT -0400)
Ashe County

Weather History for KGEV - June, 2013

Change the Weather History Date:

Thursday, June 13, 2013

  Actual Average Record
Temperature  
Mean Temperature 70 °F -  
Max Temperature 79 °F 77 °F 85 °F (1993)
Min Temperature 60 °F 53 °F 39 °F (1979)
Cooling Degree Days 5    
Growing Degree Days 20 (Base 50)    
Moisture  
Dew Point 58 °F    
Average Humidity 63    
Maximum Humidity 76    
Minimum Humidity 48    
Precipitation  
Precipitation 0.08 in - - ()
Sea Level Pressure  
Sea Level Pressure 29.91 in    
Wind  
Wind Speed 14 mph (West)    
Max Wind Speed 25 mph    
Max Gust Speed 44 mph    
Visibility 10 miles    
Events Rain    
Averages and records for this station are not official NWS values.
T = Trace of Precipitation, MM = Missing Value Source: NWS Daily Summary

Daily Weather History Graph

Daily Weather History Graph

Search for Another Location

Airport or City:

Trip Planner

Search our weather history database for the weather conditions in past years. The results will help you decide how hot, cold, wet, or windy it might be!

Date:

Astronomy

Jun. 13, 2013 Rise Set
Actual Time 6:07 AM EDT 8:44 PM EDT
Civil Twilight 5:36 AM EDT 9:15 PM EDT
Nautical Twilight 4:58 AM EDT 9:52 PM EDT
Astronomical Twilight 4:16 AM EDT 10:35 PM EDT
Moon 10:36 AM EDT (6/13) 11:57 PM EDT (6/13)
Length of Visible Light 15h 38m
Length of Day
14h 37m
Waxing Crescent, 21% of the Moon is Illuminated
Jun 13
Waxing Crescent
Jun 16
First Quarter
Jun 23
Full
Jun 30
Last Quarter
Jul 8
New

Hourly Weather History & Observations

Time (EDT) Temp. Dew Point Humidity Pressure Visibility Wind Dir Wind Speed Gust Speed Precip Events Conditions
12:15 AM 73.2 °F 61.7 °F 67% 30.03 in 10.0 mi Calm Calm - N/A   Clear
12:35 AM 72.3 °F 61.7 °F 69% 30.03 in 10.0 mi West 5.8 mph - N/A   Clear
12:55 AM 73.4 °F 61.3 °F 66% 30.04 in 10.0 mi NNW 5.8 mph - N/A   Clear
1:15 AM 74.1 °F 60.6 °F 63% 30.03 in 10.0 mi West 3.5 mph - N/A   Clear
1:35 AM 73.4 °F 60.3 °F 63% 30.03 in 10.0 mi Calm Calm - N/A   Clear
1:55 AM 73.9 °F 58.3 °F 58% 30.03 in 10.0 mi West 6.9 mph - N/A   Clear
2:15 AM 74.3 °F 59.9 °F 61% 30.03 in 10.0 mi West 17.3 mph 21.9 mph N/A   Clear
2:35 AM 74.5 °F 60.3 °F 61% 30.02 in 10.0 mi West 21.9 mph 31.1 mph N/A   Clear
2:55 AM 74.5 °F 59.9 °F 60% 30.02 in 10.0 mi West 19.6 mph 26.5 mph N/A   Clear
3:15 AM 74.5 °F 60.8 °F 62% 30.01 in 10.0 mi West 23.0 mph 36.8 mph N/A   Clear
3:35 AM 74.7 °F 60.8 °F 62% 30.01 in 10.0 mi West 19.6 mph 33.4 mph N/A   Clear
3:55 AM 74.5 °F 60.4 °F 61% 30.00 in 10.0 mi West 23.0 mph 35.7 mph N/A   Scattered Clouds
4:15 AM 74.3 °F 60.3 °F 61% 30.00 in 10.0 mi West 19.6 mph 31.1 mph N/A   Scattered Clouds
4:35 AM 73.9 °F 59.9 °F 61% 29.98 in 10.0 mi West 23.0 mph 33.4 mph N/A   Mostly Cloudy
4:55 AM 73.4 °F 59.7 °F 62% 29.98 in 10.0 mi West 18.4 mph 26.5 mph N/A   Mostly Cloudy
5:15 AM 73.4 °F 59.4 °F 61% 29.98 in 10.0 mi West 18.4 mph 36.8 mph N/A   Scattered Clouds
5:35 AM 72.9 °F 59.9 °F 64% 29.97 in 10.0 mi West 15.0 mph 29.9 mph N/A   Scattered Clouds
5:55 AM 72.5 °F 59.7 °F 64% 29.96 in 10.0 mi West 19.6 mph 31.1 mph N/A   Scattered Clouds
6:15 AM 72.1 °F 60.1 °F 66% 29.96 in 10.0 mi West 18.4 mph 29.9 mph N/A   Mostly Cloudy
6:35 AM 72.1 °F 60.1 °F 66% 29.95 in 10.0 mi West 19.6 mph 33.4 mph N/A   Mostly Cloudy
6:55 AM 72.5 °F 60.1 °F 65% 29.94 in 10.0 mi West 19.6 mph 32.2 mph N/A   Mostly Cloudy
7:15 AM 72.1 °F 60.8 °F 67% 29.93 in 10.0 mi West 19.6 mph 26.5 mph N/A   Mostly Cloudy
7:35 AM 72.7 °F 60.8 °F 66% 29.92 in 10.0 mi West 19.6 mph 31.1 mph N/A   Mostly Cloudy
7:55 AM 72.7 °F 60.6 °F 66% 29.92 in 10.0 mi West 24.2 mph 33.4 mph N/A   Mostly Cloudy
8:15 AM 72.9 °F 60.4 °F 65% 29.93 in 10.0 mi West 20.7 mph 33.4 mph N/A   Mostly Cloudy
8:35 AM 73.9 °F 60.3 °F 62% 29.93 in 10.0 mi West 18.4 mph 33.4 mph N/A   Scattered Clouds
8:55 AM 74.3 °F 59.9 °F 61% 29.92 in 10.0 mi West 12.7 mph 27.6 mph N/A   Scattered Clouds
9:15 AM 74.7 °F 59.4 °F 59% 29.91 in 10.0 mi West 24.2 mph 34.5 mph N/A   Scattered Clouds
9:35 AM 75.6 °F 59.0 °F 56% 29.92 in 10.0 mi West 19.6 mph 36.8 mph N/A   Scattered Clouds
9:55 AM 75.9 °F 59.0 °F 56% 29.91 in 10.0 mi West 19.6 mph 29.9 mph N/A   Mostly Cloudy
10:15 AM 76.3 °F 58.8 °F 55% 29.90 in 10.0 mi West 18.4 mph 27.6 mph N/A   Mostly Cloudy
10:35 AM 77.2 °F 58.8 °F 53% 29.90 in 10.0 mi West 15.0 mph 27.6 mph N/A   Mostly Cloudy
10:55 AM 76.5 °F 59.0 °F 55% 29.89 in 10.0 mi SW 10.4 mph 25.3 mph N/A   Mostly Cloudy
11:15 AM 77.7 °F 59.0 °F 52% 29.90 in 10.0 mi West 11.5 mph 24.2 mph N/A   Mostly Cloudy
11:35 AM 78.8 °F 58.5 °F 50% 29.90 in 10.0 mi WSW 13.8 mph 18.4 mph N/A   Mostly Cloudy
11:55 AM 79.5 °F 58.5 °F 48% 29.88 in 10.0 mi West 15.0 mph 33.4 mph N/A   Mostly Cloudy
12:15 PM 78.4 °F 57.9 °F 49% 29.88 in 10.0 mi WSW 13.8 mph 23.0 mph N/A   Mostly Cloudy
12:35 PM 78.6 °F 58.3 °F 50% 29.88 in 10.0 mi WSW 15.0 mph 21.9 mph N/A   Overcast
12:55 PM 78.1 °F 59.4 °F 52% 29.87 in 10.0 mi WSW 13.8 mph 21.9 mph N/A   Overcast
1:15 PM 79.0 °F 59.2 °F 51% 29.87 in 10.0 mi West 15.0 mph 18.4 mph N/A   Mostly Cloudy
1:35 PM 79.5 °F 59.4 °F 50% 29.85 in 10.0 mi WSW 13.8 mph 31.1 mph N/A   Mostly Cloudy
1:55 PM 78.8 °F 59.0 °F 51% 29.86 in 10.0 mi WSW 20.7 mph 31.1 mph N/A   Overcast
2:15 PM 77.9 °F 59.5 °F 53% 29.85 in 10.0 mi West 15.0 mph 28.8 mph N/A   Overcast
2:35 PM 76.3 °F 61.2 °F 59% 29.86 in 10.0 mi West 16.1 mph 25.3 mph N/A   Overcast
2:55 PM 68.5 °F 56.8 °F 66% - 5.0 mi West 25.3 mph 43.7 mph 0.06 in Rain Rain
3:15 PM 67.1 °F 58.3 °F 73% 29.87 in 10.0 mi West 15.0 mph 20.7 mph N/A   Scattered Clouds
3:35 PM 68.4 °F 59.2 °F 72% - 7.0 mi West 25.3 mph 36.8 mph N/A Rain Light Rain
3:55 PM 66.4 °F 58.1 °F 75% 29.86 in 10.0 mi West 20.7 mph 26.5 mph 0.02 in Rain Light Rain
4:15 PM 65.7 °F 57.0 °F 74% 29.85 in 10.0 mi West 21.9 mph 29.9 mph N/A Rain Light Rain
4:35 PM 65.7 °F 57.4 °F 75% 29.84 in 7.0 mi West 19.6 mph 32.2 mph N/A Rain Light Rain
4:55 PM 66.2 °F 57.7 °F 74% 29.82 in 7.0 mi West 23.0 mph 34.5 mph N/A Rain Light Rain
5:15 PM 66.6 °F 58.1 °F 74% 29.84 in 10.0 mi West 20.7 mph 29.9 mph N/A   Scattered Clouds
5:35 PM 65.8 °F 58.1 °F 76% 29.82 in 10.0 mi WNW 23.0 mph 32.2 mph N/A   Mostly Cloudy
5:55 PM 66.4 °F 56.7 °F 71% 29.81 in 10.0 mi NW 18.4 mph 39.1 mph N/A   Scattered Clouds
6:15 PM 66.7 °F 56.5 °F 70% 29.81 in 10.0 mi WNW 13.8 mph 27.6 mph N/A   Scattered Clouds
6:35 PM 66.9 °F 56.3 °F 69% 29.82 in 10.0 mi WNW 17.3 mph 34.5 mph N/A   Mostly Cloudy
6:55 PM 67.3 °F 56.1 °F 67% 29.81 in 10.0 mi NW 13.8 mph 27.6 mph N/A   Scattered Clouds
7:15 PM 67.1 °F 55.9 °F 67% 29.83 in 10.0 mi WNW 16.1 mph 32.2 mph N/A   Mostly Cloudy
7:35 PM 67.1 °F 56.3 °F 68% 29.85 in 10.0 mi WNW 12.7 mph 19.6 mph N/A   Mostly Cloudy
7:55 PM 67.1 °F 55.8 °F 67% 29.84 in 10.0 mi NW 20.7 mph 31.1 mph N/A   Scattered Clouds
8:15 PM 66.6 °F 55.4 °F 67% 29.83 in 10.0 mi NW 20.7 mph 26.5 mph N/A   Clear
8:35 PM 66.0 °F 55.4 °F 69% 29.83 in 10.0 mi NW 23.0 mph 34.5 mph N/A   Clear
8:55 PM 65.8 °F 55.4 °F 69% 29.83 in 10.0 mi NW 13.8 mph 28.8 mph N/A   Clear
9:15 PM 66.0 °F 55.4 °F 69% 29.83 in 10.0 mi NW 15.0 mph 33.4 mph N/A   Scattered Clouds
9:35 PM 66.0 °F 55.6 °F 69% 29.83 in 10.0 mi NW 21.9 mph 33.4 mph N/A   Scattered Clouds
9:55 PM 65.7 °F 55.8 °F 70% 29.85 in 10.0 mi NW 18.4 mph 29.9 mph N/A   Scattered Clouds
10:15 PM 65.3 °F 56.3 °F 73% 29.87 in 10.0 mi NW 9.2 mph 25.3 mph N/A   Mostly Cloudy
10:35 PM 64.6 °F 56.1 °F 74% 29.88 in 10.0 mi NW 21.9 mph 32.2 mph N/A Rain Light Rain
10:55 PM 63.1 °F 50.9 °F 64% 29.90 in 10.0 mi NNW 12.7 mph 24.2 mph N/A   Mostly Cloudy
11:15 PM 62.1 °F 49.5 °F 63% 29.90 in 10.0 mi NNW 16.1 mph 25.3 mph N/A   Mostly Cloudy
11:35 PM 61.0 °F 49.3 °F 65% 29.91 in 10.0 mi NNW 12.7 mph 23.0 mph N/A   Scattered Clouds
11:55 PM 60.1 °F 48.6 °F 66% 29.91 in 10.0 mi NNW 15.0 mph 21.9 mph N/A   Clear